York, PA

8:51 AM EST on January 21, 2018 (GMT -0500)
York

Weather History for KTHV - September, 2013

Change the Weather History Date:

Monday, September 2, 2013

  Actual Average Record
Temperature  
Mean Temperature 78 °F -  
Max Temperature 88 °F 0 °F 95 °F (2010)
Min Temperature 69 °F - 45 °F (2001)
Cooling Degree Days 13    
Growing Degree Days 28 (Base 50)    
Moisture  
Dew Point 68 °F    
Average Humidity 76    
Maximum Humidity 94    
Minimum Humidity 51    
Precipitation  
Precipitation 0.02 in - - ()
Sea Level Pressure  
Sea Level Pressure 29.77 in    
Wind  
Wind Speed 1 mph (SW)    
Max Wind Speed 6 mph    
Max Gust Speed -    
Visibility 7 miles    
Events Rain    
Averages and records for this station are not official NWS values.
T = Trace of Precipitation, MM = Missing Value Source: NWS Daily Summary

Daily Weather History Graph

Daily Weather History Graph

Search for Another Location

Airport or City:

Trip Planner

Search our weather history database for the weather conditions in past years. The results will help you decide how hot, cold, wet, or windy it might be!

Date:

Astronomy

Sep. 02, 2013 Rise Set
Actual Time 6:36 AM EDT 7:36 PM EDT
Civil Twilight 6:08 AM EDT 8:04 PM EDT
Nautical Twilight 5:35 AM EDT 8:37 PM EDT
Astronomical Twilight 5:01 AM EDT 9:11 PM EDT
Moon 3:51 AM EDT (9/2) 5:49 PM EDT (9/2)
Length of Visible Light 13h 55m
Length of Day
13h 00m
Waning Crescent, 8% of the Moon is Illuminated
Sep 2
Waning Crescent
Sep 5
New
Sep 12
First Quarter
Sep 19
Full
Sep 26
Last Quarter

Hourly Weather History & Observations

Time (EDT) Temp. Heat Index Dew Point Humidity Pressure Visibility Wind Dir Wind Speed Gust Speed Precip Events Conditions
12:53 AM 71.1 °F - 68.0 °F 90% 29.79 in 6.0 mi Calm Calm - N/A   Clear
1:53 AM 70.0 °F - 66.9 °F 90% 29.79 in 6.0 mi Calm Calm - N/A   Clear
2:53 AM 70.0 °F - 66.9 °F 90% 29.78 in 4.0 mi Calm Calm - N/A   Partly Cloudy
3:53 AM 72.0 °F - 69.1 °F 91% 29.79 in 6.0 mi Calm Calm - 0.01 in Rain Light Rain
4:53 AM 71.1 °F - 68.0 °F 90% 29.77 in 5.0 mi Calm Calm - 0.01 in   Mostly Cloudy
5:53 AM 71.1 °F - 68.0 °F 90% 29.78 in 5.0 mi Calm Calm - N/A   Clear
6:31 AM 69.8 °F - 66.2 °F 88% 29.79 in 2.0 mi Calm Calm - N/A   Clear
6:47 AM 69.8 °F - 66.2 °F 88% 29.79 in 1.0 mi Calm Calm - N/A   Clear
6:48 AM 69.1 °F - 66.9 °F 93% 29.78 in 1.0 mi Calm Calm - N/A   Clear
7:05 AM 69.8 °F - 66.2 °F 88% 29.79 in 1.5 mi Calm Calm - N/A   Clear
7:28 AM 71.6 °F - 68.0 °F 88% 29.79 in 2.5 mi Calm Calm - N/A   Clear
7:37 AM 71.6 °F - 69.8 °F 94% 29.80 in 4.0 mi Calm Calm - N/A   Clear
7:53 AM 73.0 °F - 69.1 °F 87% 29.80 in 6.0 mi Calm Calm - N/A   Clear
8:53 AM 75.0 °F - 68.0 °F 79% 29.80 in 10.0 mi Calm Calm - N/A   Partly Cloudy
9:53 AM 77.0 °F - 66.9 °F 71% 29.81 in 10.0 mi Calm Calm - N/A   Overcast
10:53 AM 80.1 °F 82.7 °F 68.0 °F 67% 29.81 in 10.0 mi SW 3.5 mph - N/A   Partly Cloudy
11:53 AM 82.0 °F 84.5 °F 66.9 °F 60% 29.81 in 10.0 mi Calm Calm - N/A   Mostly Cloudy
12:53 PM 82.9 °F 85.8 °F 68.0 °F 60% 29.79 in 10.0 mi Calm Calm - N/A   Clear
1:53 PM 86.0 °F 88.8 °F 66.9 °F 53% 29.78 in 10.0 mi WNW 4.6 mph - N/A   Partly Cloudy
2:53 PM 86.0 °F 88.8 °F 66.9 °F 53% 29.75 in 10.0 mi Variable 3.5 mph - N/A   Partly Cloudy
3:53 PM 84.9 °F 87.6 °F 66.9 °F 55% 29.74 in 10.0 mi SSW 4.6 mph - N/A   Partly Cloudy
4:53 PM 87.1 °F 89.9 °F 66.9 °F 51% 29.72 in 10.0 mi WSW 3.5 mph - N/A   Clear
5:53 PM 84.0 °F 87.0 °F 68.0 °F 58% 29.72 in 10.0 mi Calm Calm - N/A   Partly Cloudy
6:53 PM 82.9 °F 87.5 °F 71.1 °F 67% 29.73 in 10.0 mi Calm Calm - N/A   Mostly Cloudy
7:53 PM 79.0 °F - 68.0 °F 69% 29.73 in 10.0 mi Calm Calm - N/A   Mostly Cloudy
8:53 PM 78.1 °F - 66.9 °F 68% 29.74 in 10.0 mi SSW 5.8 mph - N/A   Clear
9:53 PM 75.0 °F - 66.9 °F 76% 29.75 in 10.0 mi Calm Calm - N/A   Clear
10:53 PM 78.1 °F - 66.0 °F 66% 29.75 in 10.0 mi Calm Calm - N/A   Clear
11:53 PM 73.9 °F - 66.9 °F 79% 29.75 in 9.0 mi Calm Calm - N/A   Clear